| time (UTC) | temp C | wind direction | speed KPH | gust KPH | rain 1hr cm | rain 24hr cm | rain mn cm | humidity % | barometer mb |
| 20260504204937 | 23 | 332 | 4.8 | 6.4 | 0.00 | 0.00 | 0.00 | 45 | 1011.7 |
| 20260504204435 | 23 | 58 | 4.8 | 4.8 | 0.00 | 0.00 | 0.00 | 46 | 1011.5 |
| 20260504203934 | 23 | 25 | 6.4 | 6.4 | 0.00 | 0.00 | 0.00 | 47 | 1011.6 |
| 20260504203431 | 23 | 27 | 9.7 | 12.9 | 0.00 | 0.00 | 0.00 | 45 | 1011.8 |
| 20260504202927 | 23 | 44 | 6.4 | 6.4 | 0.00 | 0.00 | 0.00 | 46 | 1011.5 |
| 20260504202424 | 23 | 225 | 12.9 | 14.5 | 0.00 | 0.00 | 0.00 | 45 | 1011.6 |
| 20260504201920 | 23 | 66 | 11.3 | 14.5 | 0.00 | 0.00 | 0.00 | 46 | 1011.7 |
| 20260504201418 | 23 | 40 | 4.8 | 6.4 | 0.00 | 0.00 | 0.00 | 47 | 1011.6 |
| 20260504200915 | 23 | 53 | 9.7 | 16.1 | 0.00 | 0.00 | 0.00 | 45 | 1011.7 |
| 20260504200412 | 23 | 62 | 4.8 | 6.4 | 0.00 | 0.00 | 0.00 | 46 | 1011.9 |
| 20260504195908 | 23 | 58 | 4.8 | 6.4 | 0.00 | 0.00 | 0.00 | 47 | 1011.8 |
| 20260504195404 | 22 | 340 | 12.9 | 17.7 | 0.00 | 0.00 | 0.00 | 46 | 1012.2 |
| 20260504194901 | 22 | 340 | 12.9 | 20.9 | 0.00 | 0.00 | 0.00 | 47 | 1012.4 |
| 20260504194357 | 22 | 20 | 4.8 | 4.8 | 0.00 | 0.00 | 0.00 | 47 | 1012.1 |
| 20260504193853 | 22 | 71 | 8.0 | 11.3 | 0.00 | 0.00 | 0.00 | 48 | 1012.4 |
| 20260504193350 | 22 | 335 | 9.7 | 17.7 | 0.00 | 0.00 | 0.00 | 48 | 1012.3 |
| 20260504192849 | 22 | 352 | 9.7 | 14.5 | 0.00 | 0.00 | 0.00 | 48 | 1012.6 |
| 20260504192346 | 21 | 48 | 4.8 | 6.4 | 0.00 | 0.00 | 0.00 | 48 | 1012.6 |
| 20260504191844 | 21 | 343 | 6.4 | 6.4 | 0.00 | 0.00 | 0.00 | 48 | 1012.5 |
| 20260504191342 | 21 | 57 | 8.0 | 11.3 | 0.00 | 0.00 | 0.00 | 47 | 1012.9 |
| 20260504190837 | 21 | 43 | 8.0 | 12.9 | 0.00 | 0.00 | 0.00 | 48 | 1013.0 |
| 20260504190333 | 21 | 22 | 6.4 | 6.4 | 0.00 | 0.00 | 0.00 | 48 | 1012.9 |
| 20260504185830 | 21 | 9 | 9.7 | 14.5 | 0.00 | 0.00 | 0.00 | 47 | 1012.9 |
| 20260504185327 | 21 | 1 | 8.0 | 11.3 | 0.00 | 0.00 | 0.00 | 47 | 1012.9 |
| 20260504184823 | 21 | 308 | 9.7 | 12.9 | 0.00 | 0.00 | 0.00 | 46 | 1012.8 |
| 20260504184319 | 21 | 323 | 6.4 | 9.7 | 0.00 | 0.00 | 0.00 | 47 | 1013.0 |
| 20260504183815 | 22 | 89 | 9.7 | 12.9 | 0.00 | 0.00 | 0.00 | 46 | 1012.9 |
| 20260504183313 | 22 | 314 | 8.0 | 12.9 | 0.00 | 0.00 | 0.00 | 46 | 1013.3 |
| 20260504182810 | 22 | 49 | 9.7 | 12.9 | 0.00 | 0.00 | 0.00 | 46 | 1013.2 |
| 20260504182308 | 22 | 109 | 9.7 | 12.9 | 0.00 | 0.00 | 0.00 | 45 | 1013.0 |
| 20260504181805 | 22 | 296 | 11.3 | 14.5 | 0.00 | 0.00 | 0.00 | 45 | 1013.5 |
| 20260504181302 | 22 | 9 | 8.0 | 12.9 | 0.00 | 0.00 | 0.00 | 46 | 1013.1 |
| 20260504180801 | 22 | 254 | 12.9 | 17.7 | 0.00 | 0.00 | 0.00 | 44 | 1013.3 |
| 20260504180259 | 22 | 117 | 8.0 | 12.9 | 0.00 | 0.00 | 0.00 | 45 | 1013.4 |
| 20260504175756 | 22 | 344 | 20.9 | 25.7 | 0.00 | 0.00 | 0.00 | 44 | 1013.2 |
| 20260504175253 | 22 | 49 | 11.3 | 14.5 | 0.00 | 0.00 | 0.00 | 45 | 1013.3 |
| 20260504174751 | 22 | 321 | 11.3 | 14.5 | 0.00 | 0.00 | 0.00 | 45 | 1013.4 |
| 20260504174249 | 22 | 308 | 6.4 | 9.7 | 0.00 | 0.00 | 0.00 | 44 | 1013.6 |
| 20260504173745 | 22 | 1 | 4.8 | 6.4 | 0.00 | 0.00 | 0.00 | 43 | 1013.6 |
| 20260504173242 | 22 | 2 | 12.9 | 16.1 | 0.00 | 0.00 | 0.00 | 43 | 1013.9 |
| 20260504172739 | 22 | 56 | 8.0 | 11.3 | 0.00 | 0.00 | 0.00 | 46 | 1013.9 |
| 20260504172235 | 22 | 61 | 6.4 | 9.7 | 0.00 | 0.00 | 0.00 | 45 | 1013.9 |
| 20260504171731 | 21 | 336 | 8.0 | 14.5 | 0.00 | 0.00 | 0.00 | 44 | 1014.0 |
| 20260504171229 | 22 | 42 | 6.4 | 6.4 | 0.00 | 0.00 | 0.00 | 44 | 1014.0 |
| 20260504170726 | 21 | 315 | 11.3 | 16.1 | 0.00 | 0.00 | 0.00 | 44 | 1014.1 |
| 20260504170223 | 21 | 334 | 9.7 | 12.9 | 0.00 | 0.00 | 0.00 | 44 | 1014.2 |
| 20260504160141 | 21 | 319 | 1.6 | 1.6 | 0.00 | 0.00 | 0.00 | 46 | 1014.8 |
| 20260504151109 | 18 | 323 | 6.4 | 11.3 | 0.00 | 0.00 | 0.00 | 46 | 1015.4 |
| 20260504150606 | 18 | 79 | 8.0 | 12.9 | 0.00 | 0.00 | 0.00 | 46 | 1015.6 |
| 20260504150103 | 17 | 354 | 3.2 | 3.2 | 0.00 | 0.00 | 0.00 | 49 | 1015.5 |
| 20260504141032 | 17 | 349 | 4.8 | 6.4 | 0.00 | 0.00 | 0.00 | 49 | 1015.3 |
| 20260504140528 | 17 | 327 | 6.4 | 9.7 | 0.00 | 0.00 | 0.00 | 49 | 1015.3 |
| 20260504130453 | 13 | 4 | 4.8 | 6.4 | 0.00 | 0.00 | 0.00 | 65 | 1016.3 |
| 20260504110340 | 6 | 28 | 0.0 | 0.0 | 0.00 | 0.00 | 0.00 | 89 | 1017.0 |
| 20260504100257 | 5 | 9 | 0.0 | 0.0 | 0.00 | 0.00 | 0.00 | 95 | 1016.3 |
| 20260504081651 | 7 | 37 | 0.0 | 0.0 | 0.00 | 0.00 | 0.00 | 88 | 1016.7 |
| 20260504081147 | 7 | 32 | 0.0 | 0.0 | 0.00 | 0.00 | 0.00 | 88 | 1016.7 |
| 20260504080643 | 7 | 31 | 0.0 | 0.0 | 0.00 | 0.00 | 0.00 | 87 | 1016.6 |
| 20260504080140 | 7 | 55 | 0.0 | 1.6 | 0.00 | 0.00 | 0.00 | 88 | 1016.7 |
| 20260504070108 | 7 | 16 | 0.0 | 0.0 | 0.00 | 0.00 | 0.00 | 86 | 1016.7 |
| 20260504050456 | 7 | 351 | 0.0 | 0.0 | 0.00 | 0.00 | 0.00 | 83 | 1017.3 |
| 20260504045953 | 7 | 39 | 0.0 | 0.0 | 0.00 | 0.00 | 0.00 | 82 | 1017.4 |
| 20260504045449 | 7 | 64 | 1.6 | 1.6 | 0.00 | 0.00 | 0.00 | 83 | 1017.0 |
| 20260504044945 | 7 | 88 | 1.6 | 3.2 | 0.00 | 0.00 | 0.00 | 83 | 1017.2 |
| 20260504044443 | 7 | 86 | 1.6 | 1.6 | 0.00 | 0.00 | 0.00 | 86 | 1017.0 |
| 20260504043940 | 7 | 88 | 3.2 | 3.2 | 0.00 | 0.00 | 0.00 | 86 | 1016.8 |
| 20260504043437 | 7 | 59 | 0.0 | 1.6 | 0.00 | 0.00 | 0.00 | 85 | 1016.7 |
| 20260504042935 | 7 | 77 | 1.6 | 3.2 | 0.00 | 0.00 | 0.00 | 82 | 1017.1 |
| 20260504042431 | 7 | 14 | 0.0 | 0.0 | 0.00 | 0.00 | 0.00 | 80 | 1016.9 |
| 20260504041928 | 7 | 352 | 0.0 | 0.0 | 0.00 | 0.00 | 0.00 | 81 | 1016.7 |
| 20260504041424 | 7 | 2 | 0.0 | 0.0 | 0.00 | 0.00 | 0.00 | 81 | 1016.9 |
| 20260504040920 | 7 | 10 | 0.0 | 0.0 | 0.00 | 0.00 | 0.00 | 81 | 1016.9 |
| 20260504040418 | 7 | 11 | 0.0 | 0.0 | 0.00 | 0.00 | 0.00 | 80 | 1017.0 |
| 20260504035914 | 7 | 14 | 0.0 | 0.0 | 0.00 | 0.00 | 0.00 | 77 | 1016.8 |
| 20260504035411 | 7 | 13 | 0.0 | 0.0 | 0.00 | 0.00 | 0.00 | 76 | 1016.9 |
| 20260504034908 | 7 | 14 | 0.0 | 0.0 | 0.00 | 0.00 | 0.00 | 77 | 1017.3 |
| 20260504034405 | 7 | 18 | 0.0 | 0.0 | 0.00 | 0.00 | 0.00 | 76 | 1017.1 |
| 20260504033902 | 7 | 44 | 0.0 | 0.0 | 0.00 | 0.00 | 0.00 | 77 | 1017.3 |
| 20260504033400 | 7 | 45 | 0.0 | 0.0 | 0.00 | 0.00 | 0.00 | 78 | 1016.9 |
| 20260504032856 | 7 | 45 | 0.0 | 0.0 | 0.00 | 0.00 | 0.00 | 76 | 1016.9 |
| 20260504032354 | 7 | 48 | 0.0 | 0.0 | 0.00 | 0.00 | 0.00 | 78 | 1017.3 |
| 20260504031850 | 7 | 45 | 0.0 | 0.0 | 0.00 | 0.00 | 0.00 | 77 | 1016.9 |
| 20260504031347 | 7 | 46 | 0.0 | 0.0 | 0.00 | 0.00 | 0.00 | 76 | 1017.1 |
| 20260504030844 | 7 | 45 | 1.6 | 1.6 | 0.00 | 0.00 | 0.00 | 75 | 1017.1 |
| 20260504030341 | 7 | 33 | 0.0 | 0.0 | 0.00 | 0.00 | 0.00 | 76 | 1017.1 |
| 20260504025837 | 7 | 57 | 1.6 | 1.6 | 0.00 | 0.00 | 0.00 | 75 | 1017.0 |
| 20260504025334 | 7 | 32 | 0.0 | 0.0 | 0.00 | 0.00 | 0.00 | 75 | 1016.8 |
| 20260504024831 | 7 | 27 | 0.0 | 1.6 | 0.00 | 0.00 | 0.00 | 75 | 1016.9 |
| 20260504024327 | 7 | 15 | 0.0 | 0.0 | 0.00 | 0.00 | 0.00 | 73 | 1016.8 |
| 20260504023824 | 7 | 16 | 0.0 | 0.0 | 0.00 | 0.00 | 0.00 | 72 | 1016.9 |
| 20260504023321 | 7 | 3 | 0.0 | 0.0 | 0.00 | 0.00 | 0.00 | 72 | 1016.9 |
| 20260504022817 | 6 | 61 | 1.6 | 1.6 | 0.00 | 0.00 | 0.00 | 74 | 1016.8 |
| 20260504022314 | 7 | 71 | 1.6 | 1.6 | 0.00 | 0.00 | 0.00 | 79 | 1016.7 |
| 20260504021810 | 7 | 21 | 0.0 | 0.0 | 0.00 | 0.00 | 0.00 | 72 | 1016.7 |
| 20260504021308 | 7 | 41 | 0.0 | 0.0 | 0.00 | 0.00 | 0.00 | 71 | 1016.4 |
| 20260504020804 | 7 | 46 | 0.0 | 1.6 | 0.00 | 0.00 | 0.00 | 72 | 1016.5 |
| 20260504020301 | 7 | 17 | 0.0 | 0.0 | 0.00 | 0.00 | 0.00 | 70 | 1016.5 |
| 20260504015757 | 7 | 359 | 0.0 | 1.6 | 0.00 | 0.00 | 0.00 | 70 | 1016.5 |
| 20260504015254 | 7 | 17 | 1.6 | 1.6 | 0.00 | 0.00 | 0.00 | 71 | 1016.6 |
| 20260504014750 | 7 | 31 | 0.0 | 0.0 | 0.00 | 0.00 | 0.00 | 71 | 1016.4 |
| 20260504014246 | 7 | 33 | 0.0 | 0.0 | 0.00 | 0.00 | 0.00 | 69 | 1016.5 |
| 20260504013744 | 7 | 46 | 0.0 | 1.6 | 0.00 | 0.00 | 0.00 | 68 | 1016.4 |
| 20260504013241 | 7 | 41 | 0.0 | 0.0 | 0.00 | 0.00 | 0.00 | 68 | 1016.3 |
| 20260504012737 | 7 | 31 | 1.6 | 1.6 | 0.00 | 0.00 | 0.00 | 68 | 1016.3 |
| 20260504012236 | 8 | 49 | 0.0 | 0.0 | 0.00 | 0.00 | 0.00 | 67 | 1015.8 |
| 20260504011732 | 8 | 61 | 1.6 | 1.6 | 0.00 | 0.00 | 0.00 | 64 | 1015.9 |
| 20260504011229 | 8 | 65 | 1.6 | 1.6 | 0.00 | 0.00 | 0.00 | 64 | 1015.8 |
| 20260504010725 | 8 | 47 | 1.6 | 1.6 | 0.00 | 0.00 | 0.00 | 64 | 1015.8 |
| 20260504010221 | 9 | 38 | 0.0 | 0.0 | 0.00 | 0.00 | 0.00 | 65 | 1015.6 |
| 20260504005718 | 10 | 33 | 0.0 | 0.0 | 0.00 | 0.00 | 0.00 | 63 | 1015.7 |
| 20260504005215 | 10 | 51 | 0.0 | 1.6 | 0.00 | 0.00 | 0.00 | 60 | 1015.7 |
| 20260504004713 | 10 | 48 | 0.0 | 0.0 | 0.00 | 0.00 | 0.00 | 58 | 1015.7 |
| 20260504004209 | 10 | 48 | 0.0 | 0.0 | 0.00 | 0.00 | 0.00 | 59 | 1015.9 |
| 20260504003706 | 11 | 40 | 0.0 | 0.0 | 0.00 | 0.00 | 0.00 | 59 | 1015.7 |
| 20260504003203 | 11 | 40 | 0.0 | 0.0 | 0.00 | 0.00 | 0.00 | 56 | 1015.6 |
| 20260504002700 | 11 | 45 | 0.0 | 0.0 | 0.00 | 0.00 | 0.00 | 51 | 1015.5 |
| 20260504002157 | 12 | 50 | 0.0 | 0.0 | 0.00 | 0.00 | 0.00 | 48 | 1015.5 |
| 20260504001655 | 12 | 49 | 0.0 | 0.0 | 0.00 | 0.00 | 0.00 | 44 | 1015.4 |
| 20260504001151 | 12 | 22 | 0.0 | 0.0 | 0.00 | 0.00 | 0.00 | 43 | 1015.4 |
| 20260504000648 | 13 | 21 | 0.0 | 0.0 | 0.00 | 0.00 | 0.00 | 42 | 1015.6 |
| 20260504000145 | 13 | 22 | 0.0 | 0.0 | 0.00 | 0.00 | 0.00 | 41 | 1015.5 |
| 20260503235643 | 13 | 25 | 0.0 | 0.0 | 0.00 | 0.00 | 0.00 | 40 | 1015.4 |
| 20260503235139 | 14 | 20 | 0.0 | 0.0 | 0.00 | 0.00 | 0.00 | 39 | 1015.3 |
| 20260503234638 | 15 | 226 | 0.0 | 1.6 | 0.00 | 0.00 | 0.00 | 37 | 1015.3 |
| 20260503234136 | 15 | 48 | 0.0 | 0.0 | 0.00 | 0.00 | 0.00 | 36 | 1015.2 |
| 20260503233632 | 15 | 231 | 0.0 | 0.0 | 0.00 | 0.00 | 0.00 | 35 | 1015.3 |
| 20260503233128 | 15 | 136 | 0.0 | 1.6 | 0.00 | 0.00 | 0.00 | 33 | 1015.4 |
| 20260503232625 | 16 | 134 | 1.6 | 1.6 | 0.00 | 0.00 | 0.00 | 33 | 1015.2 |
| 20260503232122 | 16 | 193 | 0.0 | 1.6 | 0.00 | 0.00 | 0.00 | 32 | 1015.3 |
| 20260503231620 | 16 | 170 | 1.6 | 1.6 | 0.00 | 0.00 | 0.00 | 31 | 1015.3 |
| 20260503231116 | 17 | 211 | 1.6 | 1.6 | 0.00 | 0.00 | 0.00 | 30 | 1015.3 |
| 20260503230613 | 18 | 60 | 0.0 | 0.0 | 0.00 | 0.00 | 0.00 | 27 | 1015.1 |
| 20260503230111 | 18 | 92 | 3.2 | 3.2 | 0.00 | 0.00 | 0.00 | 28 | 1015.1 |
| 20260503225608 | 18 | 44 | 0.0 | 0.0 | 0.00 | 0.00 | 0.00 | 32 | 1015.1 |
| 20260503225108 | 18 | 75 | 1.6 | 1.6 | 0.00 | 0.00 | 0.00 | 29 | 1015.2 |
| 20260503224605 | 17 | 51 | 0.0 | 0.0 | 0.00 | 0.00 | 0.00 | 28 | 1015.1 |
| 20260503224103 | 17 | 341 | 1.6 | 1.6 | 0.00 | 0.00 | 0.00 | 27 | 1015.1 |
| 20260503223601 | 18 | 72 | 1.6 | 1.6 | 0.00 | 0.00 | 0.00 | 29 | 1015.2 |
| 20260503223056 | 17 | 46 | 3.2 | 3.2 | 0.00 | 0.00 | 0.00 | 29 | 1015.0 |
| 20260503222554 | 18 | 55 | 0.0 | 1.6 | 0.00 | 0.00 | 0.00 | 29 | 1015.0 |
| 20260503222052 | 18 | 64 | 0.0 | 0.0 | 0.00 | 0.00 | 0.00 | 30 | 1015.1 |
| 20260503221550 | 18 | 72 | 1.6 | 3.2 | 0.00 | 0.00 | 0.00 | 29 | 1015.0 |
| 20260503221047 | 18 | 299 | 3.2 | 4.8 | 0.00 | 0.00 | 0.00 | 27 | 1015.3 |
| 20260503220543 | 18 | 53 | 1.6 | 1.6 | 0.00 | 0.00 | 0.00 | 28 | 1015.2 |
| 20260503220040 | 18 | 358 | 3.2 | 6.4 | 0.00 | 0.00 | 0.00 | 28 | 1015.2 |
| 20260503215537 | 18 | 28 | 3.2 | 3.2 | 0.00 | 0.00 | 0.00 | 31 | 1015.5 |
| 20260503215034 | 18 | 121 | 1.6 | 3.2 | 0.00 | 0.00 | 0.00 | 31 | 1015.3 |
| 20260503214533 | 17 | 357 | 1.6 | 1.6 | 0.00 | 0.00 | 0.00 | 30 | 1015.3 |
| 20260503214029 | 17 | 79 | 3.2 | 4.8 | 0.00 | 0.00 | 0.00 | 33 | 1015.2 |
| 20260503213527 | 17 | 352 | 1.6 | 3.2 | 0.00 | 0.00 | 0.00 | 31 | 1015.2 |
| 20260503213024 | 18 | 161 | 6.4 | 9.7 | 0.00 | 0.00 | 0.00 | 29 | 1015.4 |
| 20260503212521 | 17 | 130 | 1.6 | 1.6 | 0.00 | 0.00 | 0.00 | 32 | 1015.5 |
| 20260503212019 | 18 | 100 | 0.0 | 1.6 | 0.00 | 0.00 | 0.00 | 30 | 1015.3 |
| 20260503211515 | 17 | 100 | 3.2 | 3.2 | 0.00 | 0.00 | 0.00 | 30 | 1015.3 |
| 20260503211011 | 17 | 225 | 6.4 | 9.7 | 0.00 | 0.00 | 0.00 | 30 | 1015.3 |
| 20260503210508 | 17 | 323 | 11.3 | 14.5 | 0.00 | 0.00 | 0.00 | 31 | 1015.2 |
| 20260503210004 | 17 | 65 | 4.8 | 6.4 | 0.00 | 0.00 | 0.00 | 34 | 1015.5 |
| 20260503205500 | 17 | 92 | 4.8 | 4.8 | 0.00 | 0.00 | 0.00 | 32 | 1015.6 |